| time (UTC) | temp C | wind direction | speed KPH | gust KPH | rain 1hr cm | rain 24hr cm | rain mn cm | humidity % | barometer mb |
| 20260507040058 | 12 | 355 | 14.5 | 17.7 | 0.00 | 1.63 | 0.00 | 81 | 1011.6 |
| 20260507034556 | 12 | 347 | 4.8 | 16.1 | 0.00 | 1.63 | 1.63 | 81 | 1011.7 |
| 20260507033058 | 12 | 352 | 9.7 | 17.7 | 0.00 | 1.63 | 1.63 | 80 | 1011.5 |
| 20260507031556 | 13 | 347 | 12.9 | 25.7 | 0.00 | 1.63 | 1.63 | 80 | 1011.1 |
| 20260507030056 | 13 | 354 | 12.9 | 24.1 | 0.00 | 1.63 | 1.63 | 80 | 1011.3 |
| 20260507024553 | 13 | 18 | 11.3 | 20.9 | 0.00 | 1.63 | 1.63 | 80 | 1011.2 |
| 20260507023056 | 13 | 1 | 11.3 | 20.9 | 0.00 | 1.63 | 1.63 | 80 | 1011.1 |
| 20260507021557 | 14 | 27 | 14.5 | 25.7 | 0.00 | 1.63 | 1.63 | 80 | 1010.9 |
| 20260507020115 | 15 | 10 | 12.9 | 19.3 | 0.00 | 1.63 | 1.63 | 79 | 1011.0 |
| 20260507014559 | 15 | 23 | 1.6 | 11.3 | 0.00 | 1.63 | 1.63 | 79 | 1011.0 |
| 20260507013055 | 15 | 12 | 3.2 | 17.7 | 0.00 | 1.63 | 1.63 | 79 | 1011.0 |
| 20260507011556 | 15 | 309 | 0.0 | 14.5 | 0.00 | 1.63 | 1.63 | 80 | 1010.9 |
| 20260507010106 | 15 | 27 | 4.8 | 9.7 | 0.00 | 1.63 | 1.63 | 80 | 1010.8 |
| 20260507004557 | 15 | 277 | 1.6 | 9.7 | 0.00 | 1.63 | 1.63 | 80 | 1010.7 |
| 20260507003056 | 15 | 307 | 0.0 | 6.4 | 0.00 | 1.63 | 1.63 | 80 | 1010.1 |
| 20260507001558 | 15 | 85 | 3.2 | 8.0 | 0.00 | 1.63 | 1.63 | 80 | 1010.1 |
| 20260507000054 | 16 | 0 | 0.0 | 8.0 | 0.00 | 1.63 | 1.63 | 81 | 1009.7 |
| 20260506234600 | 16 | 269 | 3.2 | 11.3 | 0.00 | 1.63 | 1.63 | 82 | 1009.1 |
| 20260506233058 | 16 | 11 | 3.2 | 11.3 | 0.00 | 1.63 | 1.63 | 84 | 1008.7 |
| 20260506231608 | 16 | 348 | 4.8 | 16.1 | 0.13 | 1.63 | 1.63 | 84 | 1008.8 |
| 20260506230121 | 17 | 333 | 8.0 | 17.7 | 0.18 | 1.63 | 1.63 | 85 | 1008.6 |
| 20260506224557 | 17 | 266 | 3.2 | 6.4 | 0.18 | 1.63 | 1.63 | 87 | 1008.5 |
| 20260506223057 | 18 | 271 | 1.6 | 9.7 | 0.18 | 1.63 | 1.63 | 85 | 1008.4 |
| 20260506221633 | 18 | 237 | 8.0 | 19.3 | 0.05 | 1.47 | 1.47 | 84 | 1008.2 |
| 20260506220129 | 18 | 237 | 12.9 | 19.3 | 0.00 | 1.45 | 1.45 | 82 | 1007.8 |
| 20260506214602 | 18 | 224 | 9.7 | 14.5 | 0.00 | 1.45 | 1.45 | 81 | 1007.8 |
| 20260506213111 | 19 | 243 | 9.7 | 17.7 | 0.00 | 1.45 | 1.45 | 81 | 1007.5 |
| 20260506211601 | 19 | 260 | 6.4 | 14.5 | 0.00 | 1.45 | 1.45 | 81 | 1007.4 |
| 20260506210107 | 19 | 259 | 8.0 | 14.5 | 0.00 | 1.45 | 1.45 | 81 | 1007.4 |
| 20260506204608 | 19 | 224 | 8.0 | 17.7 | 0.00 | 1.45 | 1.45 | 82 | 1007.4 |
| 20260506203102 | 19 | 239 | 6.4 | 16.1 | 0.00 | 1.45 | 1.45 | 81 | 1007.4 |
| 20260506201609 | 18 | 255 | 11.3 | 19.3 | 0.00 | 1.45 | 1.45 | 81 | 1007.3 |
| 20260506200058 | 18 | 250 | 9.7 | 16.1 | 0.00 | 1.45 | 1.45 | 82 | 1007.3 |
| 20260506194600 | 18 | 262 | 11.3 | 19.3 | 0.00 | 1.45 | 1.45 | 82 | 1007.6 |
| 20260506193059 | 18 | 237 | 6.4 | 16.1 | 0.00 | 1.45 | 1.45 | 84 | 1007.6 |
| 20260506191604 | 18 | 257 | 8.0 | 17.7 | 0.00 | 1.45 | 1.45 | 84 | 1007.7 |
| 20260506190100 | 17 | 257 | 11.3 | 17.7 | 0.00 | 1.45 | 1.45 | 85 | 1007.7 |
| 20260506184634 | 17 | 252 | 8.0 | 16.1 | 0.00 | 1.45 | 1.45 | 85 | 1007.9 |
| 20260506183114 | 17 | 250 | 9.7 | 17.7 | 0.00 | 1.45 | 1.45 | 86 | 1008.0 |
| 20260506181602 | 17 | 238 | 11.3 | 22.5 | 0.00 | 1.45 | 1.45 | 86 | 1008.1 |
| 20260506180100 | 17 | 217 | 9.7 | 22.5 | 0.00 | 1.45 | 1.45 | 87 | 1008.2 |
| 20260506174559 | 16 | 255 | 16.1 | 24.1 | 0.00 | 1.45 | 1.45 | 87 | 1008.2 |
| 20260506173100 | 16 | 248 | 14.5 | 22.5 | 0.00 | 1.45 | 1.45 | 87 | 1008.1 |
| 20260506171607 | 16 | 244 | 8.0 | 16.1 | 0.00 | 1.45 | 1.45 | 88 | 1008.2 |
| 20260506164600 | 16 | 233 | 11.3 | 17.7 | 0.00 | 1.45 | 1.45 | 89 | 1008.2 |
| 20260506163111 | 16 | 241 | 8.0 | 17.7 | 0.00 | 1.45 | 1.45 | 89 | 1008.3 |
| 20260506161601 | 16 | 215 | 12.9 | 19.3 | 0.03 | 1.45 | 1.45 | 89 | 1008.3 |
| 20260506160109 | 16 | 229 | 11.3 | 22.5 | 0.13 | 1.45 | 1.45 | 89 | 1008.4 |
| 20260506154559 | 16 | 240 | 9.7 | 24.1 | 0.23 | 1.45 | 1.45 | 89 | 1008.5 |
| 20260506153055 | 15 | 218 | 11.3 | 19.3 | 0.48 | 1.45 | 1.45 | 90 | 1008.2 |
| 20260506151559 | 15 | 244 | 9.7 | 20.9 | 0.76 | 1.42 | 1.42 | 90 | 1008.2 |
| 20260506144603 | 15 | 217 | 11.3 | 16.1 | 0.69 | 1.22 | 1.22 | 90 | 1009.1 |
| 20260506143055 | 16 | 261 | 11.3 | 24.1 | 0.61 | 0.94 | 0.94 | 89 | 1009.5 |
| 20260506141559 | 16 | 245 | 11.3 | 19.3 | 0.43 | 0.66 | 0.66 | 88 | 1009.1 |
| 20260506140055 | 16 | 214 | 6.4 | 16.1 | 0.41 | 0.64 | 0.64 | 88 | 1008.8 |
| 20260506134601 | 16 | 206 | 4.8 | 12.9 | 0.33 | 0.53 | 0.53 | 87 | 1008.6 |
| 20260506133056 | 16 | 226 | 8.0 | 14.5 | 0.15 | 0.33 | 0.33 | 85 | 1008.9 |
| 20260506131607 | 16 | 240 | 8.0 | 17.7 | 0.10 | 0.23 | 0.23 | 85 | 1008.8 |
| 20260506130056 | 16 | 229 | 9.7 | 16.1 | 0.15 | 0.23 | 0.23 | 84 | 1008.6 |
| 20260506124555 | 16 | 221 | 9.7 | 19.3 | 0.15 | 0.20 | 0.20 | 84 | 1008.8 |
| 20260506123057 | 16 | 232 | 9.7 | 16.1 | 0.15 | 0.18 | 0.18 | 82 | 1008.9 |
| 20260506121559 | 16 | 250 | 9.7 | 17.7 | 0.13 | 0.13 | 0.13 | 81 | 1009.3 |
| 20260506114558 | 17 | 249 | 6.4 | 12.9 | 0.05 | 0.05 | 0.05 | 77 | 1009.0 |
| 20260506113054 | 17 | 229 | 4.8 | 12.9 | 0.03 | 0.03 | 0.03 | 75 | 1008.7 |
| 20260506111556 | 18 | 237 | 6.4 | 19.3 | 0.00 | 0.00 | 0.00 | 72 | 1008.7 |
| 20260506110058 | 18 | 233 | 11.3 | 19.3 | 0.00 | 0.00 | 0.00 | 68 | 1008.3 |
| 20260506104558 | 18 | 238 | 9.7 | 16.1 | 0.00 | 0.00 | 0.00 | 68 | 1008.3 |
| 20260506103103 | 18 | 229 | 9.7 | 17.7 | 0.00 | 0.00 | 0.00 | 68 | 1008.2 |
| 20260506101555 | 18 | 244 | 8.0 | 16.1 | 0.00 | 0.00 | 0.00 | 67 | 1007.9 |
| 20260506100109 | 19 | 236 | 8.0 | 19.3 | 0.00 | 0.00 | 0.00 | 65 | 1007.9 |
| 20260506094556 | 19 | 211 | 12.9 | 22.5 | 0.00 | 0.00 | 0.00 | 64 | 1007.8 |
| 20260506093059 | 20 | 221 | 12.9 | 22.5 | 0.00 | 0.00 | 0.00 | 63 | 1007.9 |
| 20260506091558 | 20 | 205 | 14.5 | 25.7 | 0.00 | 0.00 | 0.00 | 62 | 1008.0 |
| 20260506090055 | 20 | 234 | 12.9 | 19.3 | 0.00 | 0.00 | 0.00 | 62 | 1008.1 |
| 20260506084603 | 20 | 222 | 14.5 | 24.1 | 0.00 | 0.00 | 0.00 | 61 | 1008.2 |
| 20260506083101 | 20 | 200 | 12.9 | 20.9 | 0.00 | 0.00 | 0.00 | 60 | 1008.1 |
| 20260506081556 | 20 | 235 | 12.9 | 19.3 | 0.00 | 0.00 | 0.00 | 59 | 1008.1 |
| 20260506073056 | 21 | 240 | 12.9 | 25.7 | 0.00 | 0.00 | 0.00 | 57 | 1008.0 |
| 20260506071559 | 21 | 236 | 11.3 | 24.1 | 0.00 | 0.00 | 0.00 | 56 | 1008.1 |
| 20260506061556 | 20 | 228 | 12.9 | 19.3 | 0.00 | 0.00 | 0.00 | 54 | 1008.9 |
| 20260506044554 | 21 | 232 | 11.3 | 17.7 | 0.00 | 0.00 | 0.00 | 48 | 1009.4 |
| 20260506043056 | 21 | 217 | 9.7 | 16.1 | 0.00 | 0.00 | 0.00 | 47 | 1009.3 |
| 20260506041559 | 21 | 221 | 12.9 | 20.9 | 0.00 | 0.00 | 0.00 | 46 | 1009.3 |